Date String (YYYY-MM-DD hh:mm:ss) UTC,Instrument flags,absolute air pressure of the measurement (hPa),sample flow rate (lpm),inlet stack bypass flow (lpm),air temperature of the measurement (°C),ambient temperature measured by the external sensor (°C),aerosol sample conditioner tube jacket temperature (°C),OPC LED temperature (°C),internal box temperature (°C),relative humidity of the measurement (%),span deviation,mass concentration of particles derived from Lorenz-Mie calculation of OPC scattering (μg/m³),mass concentration of particles derived from Lorenz-Mie calculation of OPC scattering (μg/m³),mass concentration of particles derived from Lorenz-Mie calculation of OPC scattering (μg/m³)
DateTimeUTC,F1_M11,P_M11,Q1_M11,Q2_M11,T1_M11,T2_M11,T3_M11,T4_M11,T5_M11,U1_M11,ZSPAN_M11,X0_M11,X2_M11,X1_M11
2023-10-06 11:00:00,SystemResetWarning,0840.4,5.00,000.00,028.5,027.0,000.0,037.0,030.2,18.3,0000.0,0008.85,0003.37,0002.49
2023-10-06 11:01:00,SystemResetWarning,0840.3,5.01,000.00,028.5,027.0,000.0,037.0,030.2,18.3,0000.0,0008.07,0003.34,0002.46
2023-10-06 11:02:00,SystemResetWarning,0840.4,5.00,000.00,028.5,027.0,000.0,037.0,030.2,18.3,0000.0,0008.12,0003.31,0002.44
2023-10-06 11:03:00,SystemResetWarning,0840.4,4.98,000.00,028.6,027.0,000.0,037.0,030.2,18.2,0000.0,0008.21,0003.31,0002.44
2023-10-06 11:04:00,SystemResetWarning,0840.4,5.01,000.00,028.6,027.0,000.0,037.0,030.2,18.2,0000.0,0008.15,0003.27,0002.43
2023-10-06 11:05:00,SystemResetWarning,0840.5,5.01,000.00,028.6,027.0,000.0,037.0,030.2,18.2,0000.0,0007.79,0003.26,0002.43
2023-10-06 11:06:00,SystemResetWarning,0840.5,5.00,000.00,028.6,027.0,000.0,037.0,030.2,18.1,0000.0,0008.47,0003.32,0002.44
2023-10-06 11:07:00,SystemResetWarning,0840.5,5.00,000.00,028.6,027.0,000.0,037.0,030.2,18.1,0000.0,0008.62,0003.31,0002.43
2023-10-06 11:08:00,SystemResetWarning,0840.6,4.99,000.00,028.6,027.0,000.0,036.9,030.2,18.1,0000.0,0008.72,0003.27,0002.42
2023-10-06 11:09:00,SystemResetWarning,0840.6,4.99,000.00,028.6,027.0,000.0,037.0,030.2,18.1,0000.0,0009.11,0003.24,0002.39
2023-10-06 11:10:00,SystemResetWarning,0840.6,5.00,000.00,028.6,027.0,000.0,037.0,030.2,18.0,0000.0,0008.96,0003.19,0002.36
2023-10-06 11:11:00,SystemResetWarning,0840.6,5.01,000.00,028.6,027.0,000.0,037.0,030.2,18.0,0000.0,0008.94,0003.18,0002.34
2023-10-06 11:12:00,SystemResetWarning,0840.6,5.01,000.00,028.6,027.0,000.0,037.0,030.2,18.0,0000.0,0009.52,0003.17,0002.32
2023-10-06 11:13:00,SystemResetWarning,0840.6,5.01,000.00,028.6,027.0,000.0,037.0,030.2,18.0,0000.0,0009.28,0003.15,0002.30
2023-10-06 11:14:00,SystemResetWarning,0840.7,4.99,000.00,028.6,027.0,000.0,037.0,030.2,18.0,0000.0,0009.83,0003.10,0002.29
2023-10-06 11:15:00,SystemResetWarning,0840.6,5.00,000.00,028.6,027.0,000.0,036.9,030.2,18.0,0000.0,0009.85,0003.08,0002.26
2023-10-06 11:16:00,SystemResetWarning,0840.7,4.99,000.00,028.6,027.0,000.0,037.0,030.2,17.9,0000.0,0009.75,0003.04,0002.23
2023-10-06 11:17:00,SystemResetWarning,0840.7,5.01,000.00,028.6,027.0,000.0,037.0,030.2,17.9,0000.0,0009.16,0002.97,0002.21
2023-10-06 11:18:00,SystemResetWarning,0840.8,5.01,000.00,028.6,027.0,000.0,037.0,030.2,17.9,0000.0,0009.44,0002.99,0002.20
2023-10-06 11:19:00,SystemResetWarning,0840.8,5.01,000.00,028.6,027.0,000.0,037.0,030.2,17.9,0000.0,0009.52,0003.03,0002.19
2023-10-06 11:20:00,SystemResetWarning,0840.7,5.00,000.00,028.6,027.0,000.0,037.0,030.2,17.9,0000.0,0009.15,0003.04,0002.17
2023-10-06 11:21:00,SystemResetWarning,0840.8,5.00,000.00,028.6,027.0,000.0,037.0,030.2,17.9,0000.0,0009.11,0003.00,0002.15
2023-10-06 11:22:00,SystemResetWarning,0840.8,5.00,000.00,028.6,027.0,000.0,037.0,030.2,17.8,0000.0,0009.35,0002.93,0002.14
2023-10-06 11:23:00,SystemResetWarning,0840.9,4.99,000.00,028.6,027.0,000.0,037.0,030.2,17.8,0000.0,0008.81,0002.87,0002.15
2023-10-06 11:24:00,SystemResetWarning,0840.8,4.99,000.00,028.6,027.0,000.0,037.0,030.2,17.8,0000.0,0008.84,0002.90,0002.16
2023-10-06 11:25:00,SystemResetWarning,0840.8,5.00,000.00,028.6,027.0,000.0,037.0,030.2,17.8,0000.0,0008.06,0002.94,0002.15
2023-10-06 11:26:00,SystemResetWarning,0840.9,5.00,000.00,028.6,027.0,000.0,037.0,030.2,17.8,0000.0,0008.01,0002.95,0002.14
2023-10-06 11:27:00,SystemResetWarning,0841.0,5.00,000.00,028.6,027.0,000.0,037.0,030.2,17.8,0000.0,0008.20,0002.98,0002.14
2023-10-06 11:28:00,SystemResetWarning,0841.0,5.00,000.00,028.5,027.0,000.0,037.0,030.2,17.7,0000.0,0008.15,0002.95,0002.12
2023-10-06 11:29:00,SystemResetWarning,0841.0,5.00,000.00,028.5,027.0,000.0,037.0,030.2,17.7,0000.0,0008.42,0002.91,0002.09
2023-10-06 11:30:00,SystemResetWarning,0841.0,5.00,000.00,028.6,027.0,000.0,036.9,030.2,17.7,0000.0,0008.77,0002.86,0002.07
2023-10-06 11:31:00,SystemResetWarning,0841.0,5.02,000.00,028.5,027.0,000.0,037.0,030.2,17.7,0000.0,0008.81,0002.81,0002.06
2023-10-06 11:32:00,SystemResetWarning,0841.0,4.99,000.00,028.6,027.0,000.0,037.0,030.2,17.7,0000.0,0009.00,0002.80,0002.05
2023-10-06 11:33:00,SystemResetWarning,0841.0,4.99,000.00,028.6,027.0,000.0,037.0,030.2,17.7,0000.0,0008.76,0002.81,0002.04
2023-10-06 11:34:00,SystemResetWarning,0841.0,5.00,000.00,028.6,027.1,000.0,037.0,030.2,17.7,0000.0,0009.15,0002.85,0002.02
2023-10-06 11:35:00,SystemResetWarning,0841.1,5.00,000.00,028.6,027.1,000.0,037.0,030.2,17.7,0000.0,0009.47,0002.89,0002.00
2023-10-06 11:36:00,SystemResetWarning,0841.1,5.00,000.00,028.6,027.0,000.0,037.0,030.2,17.7,0000.0,0009.95,0002.83,0001.99
2023-10-06 11:37:00,SystemResetWarning,0841.1,5.01,000.00,028.6,027.0,000.0,037.0,030.2,17.7,0000.0,0010.98,0002.80,0001.99
2023-10-06 11:38:00,SystemResetWarning,0841.1,5.01,000.00,028.6,027.0,000.0,037.0,030.2,17.7,0000.0,0010.92,0002.82,0001.99
2023-10-06 11:39:00,SystemResetWarning,0841.1,5.00,000.00,028.6,027.0,000.0,037.0,030.2,17.7,0000.0,0011.22,0002.81,0001.98
2023-10-06 11:40:00,SystemResetWarning,0841.0,4.99,000.00,028.6,027.0,000.0,037.0,030.2,17.7,0000.0,0011.52,0002.82,0001.99
2023-10-06 11:41:00,SystemResetWarning,0841.1,5.00,000.00,028.6,027.0,000.0,037.0,030.2,17.7,0000.0,0010.93,0002.85,0002.00
2023-10-06 11:42:00,SystemResetWarning,0841.2,4.99,000.00,028.6,027.0,000.0,037.0,030.2,17.8,0000.0,0011.06,0002.86,0001.99
2023-10-06 11:43:00,SystemResetWarning,0841.2,5.00,000.00,028.5,027.0,000.0,037.0,030.2,17.8,0000.0,0011.48,0002.96,0001.98
2023-10-06 11:44:00,SystemResetWarning,0841.1,5.00,000.00,028.5,027.0,000.0,037.0,030.2,17.8,0000.0,0011.99,0003.00,0001.97
2023-10-06 11:45:00,SystemResetWarning,0841.1,5.00,000.00,028.5,027.0,000.0,037.0,030.2,17.8,0000.0,0011.32,0003.01,0001.96
2023-10-06 11:46:00,SystemResetWarning,0841.2,5.00,000.00,028.5,027.0,000.0,037.0,030.2,17.9,0000.0,0011.24,0002.98,0001.95
2023-10-06 11:47:00,SystemResetWarning,0841.2,5.00,000.00,028.5,027.0,000.0,037.0,030.1,17.9,0000.0,0011.42,0002.98,0001.93
2023-10-06 11:48:00,SystemResetWarning,0841.2,5.00,000.00,028.5,027.0,000.0,036.9,030.1,17.9,0000.0,0010.33,0002.92,0001.91
2023-10-06 11:49:00,SystemResetWarning,0841.3,5.00,000.00,028.5,026.9,000.0,037.0,030.1,17.9,0000.0,0010.32,0002.87,0001.88
2023-10-06 11:50:00,SystemResetWarning,0841.3,5.01,000.00,028.5,026.9,000.0,037.0,030.1,17.9,0000.0,0010.21,0002.82,0001.87
2023-10-06 11:51:00,SystemResetWarning,0841.2,5.00,000.00,028.5,026.9,000.0,036.9,030.1,17.9,0000.0,0010.45,0002.79,0001.86
2023-10-06 11:52:00,SystemResetWarning,0841.3,5.00,000.00,028.5,026.9,000.0,036.9,030.1,17.8,0000.0,0010.25,0002.74,0001.85
2023-10-06 11:53:00,SystemResetWarning,0841.2,5.00,000.00,028.5,026.9,000.0,036.9,030.1,17.7,0000.0,0010.38,0002.75,0001.85
2023-10-06 11:54:00,SystemResetWarning,0841.2,5.00,000.00,028.5,026.9,000.0,036.9,030.1,17.7,0000.0,0010.25,0002.65,0001.84
2023-10-06 11:55:00,SystemResetWarning,0841.3,5.00,000.00,028.5,026.9,000.0,036.9,030.1,17.7,0000.0,0009.50,0002.57,0001.83
2023-10-06 11:56:00,SystemResetWarning,0841.3,5.00,000.00,028.5,026.9,000.0,036.9,030.1,17.7,0000.0,0009.99,0002.58,0001.82
2023-10-06 11:57:00,SystemResetWarning,0841.3,5.00,000.00,028.5,026.9,000.0,036.9,030.1,17.7,0000.0,0009.92,0002.53,0001.81
2023-10-06 11:58:00,SystemResetWarning,0841.4,4.99,000.00,028.5,026.9,000.0,036.9,030.1,17.9,0000.0,0009.47,0002.54,0001.80
2023-10-06 11:59:00,SystemResetWarning,0841.4,5.00,000.00,028.5,026.9,000.0,036.9,030.1,18.0,0000.0,0009.70,0002.54,0001.79
